Index of /20260507/WXO-DD/model_caps/3km/00/021
Name Last modified Size Description
Parent Directory -
20260507T00Z_MSC_CAPS_AbsoluteVorticity_IsbL-0250_RLatLon0.03_PT021H.grib2 2026-05-07 06:12 1.1M
20260507T00Z_MSC_CAPS_AbsoluteVorticity_IsbL-0500_RLatLon0.03_PT021H.grib2 2026-05-07 06:12 1.1M
20260507T00Z_MSC_CAPS_AbsoluteVorticity_IsbL-0700_RLatLon0.03_PT021H.grib2 2026-05-07 06:12 1.3M
20260507T00Z_MSC_CAPS_AbsoluteVorticity_IsbL-0850_RLatLon0.03_PT021H.grib2 2026-05-07 06:12 1.5M
20260507T00Z_MSC_CAPS_AbsoluteVorticity_IsbL-1000_RLatLon0.03_PT021H.grib2 2026-05-07 06:12 1.7M
20260507T00Z_MSC_CAPS_AirDensity_AGL-120m_RLatLon0.03_PT021H.grib2 2026-05-07 06:12 1.4M
20260507T00Z_MSC_CAPS_AirDensity_AGL-40m_RLatLon0.03_PT021H.grib2 2026-05-07 06:12 1.4M
20260507T00Z_MSC_CAPS_AirDensity_AGL-80m_RLatLon0.03_PT021H.grib2 2026-05-07 06:12 1.4M
20260507T00Z_MSC_CAPS_AirTemp_AGL-120m_RLatLon0.03_PT021H.grib2 2026-05-07 06:12 1.4M
20260507T00Z_MSC_CAPS_AirTemp_AGL-2m_RLatLon0.03_PT021H.grib2 2026-05-07 06:12 2.1M
20260507T00Z_MSC_CAPS_AirTemp_AGL-40m_RLatLon0.03_PT021H.grib2 2026-05-07 06:12 1.5M
20260507T00Z_MSC_CAPS_AirTemp_AGL-80m_RLatLon0.03_PT021H.grib2 2026-05-07 06:12 1.4M
20260507T00Z_MSC_CAPS_AirTemp_IsbL-0050_RLatLon0.03_PT021H.grib2 2026-05-07 06:12 685K
20260507T00Z_MSC_CAPS_AirTemp_IsbL-0100_RLatLon0.03_PT021H.grib2 2026-05-07 06:12 945K
20260507T00Z_MSC_CAPS_AirTemp_IsbL-0150_RLatLon0.03_PT021H.grib2 2026-05-07 06:12 751K
20260507T00Z_MSC_CAPS_AirTemp_IsbL-0175_RLatLon0.03_PT021H.grib2 2026-05-07 06:12 778K
20260507T00Z_MSC_CAPS_AirTemp_IsbL-0200_RLatLon0.03_PT021H.grib2 2026-05-07 06:12 800K
20260507T00Z_MSC_CAPS_AirTemp_IsbL-0225_RLatLon0.03_PT021H.grib2 2026-05-07 06:12 795K
20260507T00Z_MSC_CAPS_AirTemp_IsbL-0250_RLatLon0.03_PT021H.grib2 2026-05-07 06:12 1.0M
20260507T00Z_MSC_CAPS_AirTemp_IsbL-0275_RLatLon0.03_PT021H.grib2 2026-05-07 06:12 1.0M
20260507T00Z_MSC_CAPS_AirTemp_IsbL-0300_RLatLon0.03_PT021H.grib2 2026-05-07 06:12 1.0M
20260507T00Z_MSC_CAPS_AirTemp_IsbL-0350_RLatLon0.03_PT021H.grib2 2026-05-07 06:12 750K
20260507T00Z_MSC_CAPS_AirTemp_IsbL-0400_RLatLon0.03_PT021H.grib2 2026-05-07 06:12 752K
20260507T00Z_MSC_CAPS_AirTemp_IsbL-0450_RLatLon0.03_PT021H.grib2 2026-05-07 06:12 768K
20260507T00Z_MSC_CAPS_AirTemp_IsbL-0500_RLatLon0.03_PT021H.grib2 2026-05-07 06:12 782K
20260507T00Z_MSC_CAPS_AirTemp_IsbL-0550_RLatLon0.03_PT021H.grib2 2026-05-07 06:12 793K
20260507T00Z_MSC_CAPS_AirTemp_IsbL-0600_RLatLon0.03_PT021H.grib2 2026-05-07 06:12 963K
20260507T00Z_MSC_CAPS_AirTemp_IsbL-0650_RLatLon0.03_PT021H.grib2 2026-05-07 06:12 1.0M
20260507T00Z_MSC_CAPS_AirTemp_IsbL-0700_RLatLon0.03_PT021H.grib2 2026-05-07 06:12 872K
20260507T00Z_MSC_CAPS_AirTemp_IsbL-0750_RLatLon0.03_PT021H.grib2 2026-05-07 06:12 904K
20260507T00Z_MSC_CAPS_AirTemp_IsbL-0800_RLatLon0.03_PT021H.grib2 2026-05-07 06:12 932K
20260507T00Z_MSC_CAPS_AirTemp_IsbL-0850_RLatLon0.03_PT021H.grib2 2026-05-07 06:12 1.1M
20260507T00Z_MSC_CAPS_AirTemp_IsbL-0875_RLatLon0.03_PT021H.grib2 2026-05-07 06:12 1.1M
20260507T00Z_MSC_CAPS_AirTemp_IsbL-0900_RLatLon0.03_PT021H.grib2 2026-05-07 06:12 1.1M
20260507T00Z_MSC_CAPS_AirTemp_IsbL-0925_RLatLon0.03_PT021H.grib2 2026-05-07 06:12 1.1M
20260507T00Z_MSC_CAPS_AirTemp_IsbL-0950_RLatLon0.03_PT021H.grib2 2026-05-07 06:12 1.0M
20260507T00Z_MSC_CAPS_AirTemp_IsbL-0970_RLatLon0.03_PT021H.grib2 2026-05-07 06:12 1.0M
20260507T00Z_MSC_CAPS_AirTemp_IsbL-0985_RLatLon0.03_PT021H.grib2 2026-05-07 06:12 1.0M
20260507T00Z_MSC_CAPS_AirTemp_IsbL-1000_RLatLon0.03_PT021H.grib2 2026-05-07 06:12 1.0M
20260507T00Z_MSC_CAPS_AirTemp_IsbL-1015_RLatLon0.03_PT021H.grib2 2026-05-07 06:12 1.1M
20260507T00Z_MSC_CAPS_Albedo_Sfc_RLatLon0.03_PT021H.grib2 2026-05-07 06:12 2.7M
20260507T00Z_MSC_CAPS_CAPE_Sfc_RLatLon0.03_PT021H.grib2 2026-05-07 06:12 253K
20260507T00Z_MSC_CAPS_CloudWater_EAtm_RLatLon0.03_PT021H.grib2 2026-05-07 06:12 1.6M
20260507T00Z_MSC_CAPS_ConvectivePrecip-Accum_Sfc_RLatLon0.03_PT021H.grib2 2026-05-07 06:12 3.7M
20260507T00Z_MSC_CAPS_DewPointDepression_AGL-120m_RLatLon0.03_PT021H.grib2 2026-05-07 06:12 2.2M
20260507T00Z_MSC_CAPS_DewPointDepression_AGL-2m_RLatLon0.03_PT021H.grib2 2026-05-07 06:12 2.2M
20260507T00Z_MSC_CAPS_DewPointDepression_AGL-40m_RLatLon0.03_PT021H.grib2 2026-05-07 06:12 2.2M
20260507T00Z_MSC_CAPS_DewPointDepression_AGL-80m_RLatLon0.03_PT021H.grib2 2026-05-07 06:12 2.2M
20260507T00Z_MSC_CAPS_DewPointDepression_IsbL-0050_RLatLon0.03_PT021H.grib2 2026-05-07 06:12 5.6K
20260507T00Z_MSC_CAPS_DewPointDepression_IsbL-0100_RLatLon0.03_PT021H.grib2 2026-05-07 06:12 50K
20260507T00Z_MSC_CAPS_DewPointDepression_IsbL-0150_RLatLon0.03_PT021H.grib2 2026-05-07 06:12 99K
20260507T00Z_MSC_CAPS_DewPointDepression_IsbL-0175_RLatLon0.03_PT021H.grib2 2026-05-07 06:12 218K
20260507T00Z_MSC_CAPS_DewPointDepression_IsbL-0200_RLatLon0.03_PT021H.grib2 2026-05-07 06:12 393K
20260507T00Z_MSC_CAPS_DewPointDepression_IsbL-0225_RLatLon0.03_PT021H.grib2 2026-05-07 06:12 587K
20260507T00Z_MSC_CAPS_DewPointDepression_IsbL-0250_RLatLon0.03_PT021H.grib2 2026-05-07 06:12 854K
20260507T00Z_MSC_CAPS_DewPointDepression_IsbL-0275_RLatLon0.03_PT021H.grib2 2026-05-07 06:12 1.0M
20260507T00Z_MSC_CAPS_DewPointDepression_IsbL-0300_RLatLon0.03_PT021H.grib2 2026-05-07 06:12 1.1M
20260507T00Z_MSC_CAPS_DewPointDepression_IsbL-0350_RLatLon0.03_PT021H.grib2 2026-05-07 06:12 1.1M
20260507T00Z_MSC_CAPS_DewPointDepression_IsbL-0400_RLatLon0.03_PT021H.grib2 2026-05-07 06:12 1.1M
20260507T00Z_MSC_CAPS_DewPointDepression_IsbL-0450_RLatLon0.03_PT021H.grib2 2026-05-07 06:12 1.2M
20260507T00Z_MSC_CAPS_DewPointDepression_IsbL-0500_RLatLon0.03_PT021H.grib2 2026-05-07 06:12 1.2M
20260507T00Z_MSC_CAPS_DewPointDepression_IsbL-0550_RLatLon0.03_PT021H.grib2 2026-05-07 06:12 1.2M
20260507T00Z_MSC_CAPS_DewPointDepression_IsbL-0600_RLatLon0.03_PT021H.grib2 2026-05-07 06:12 1.2M
20260507T00Z_MSC_CAPS_DewPointDepression_IsbL-0650_RLatLon0.03_PT021H.grib2 2026-05-07 06:12 1.3M
20260507T00Z_MSC_CAPS_DewPointDepression_IsbL-0700_RLatLon0.03_PT021H.grib2 2026-05-07 06:12 1.3M
20260507T00Z_MSC_CAPS_DewPointDepression_IsbL-0750_RLatLon0.03_PT021H.grib2 2026-05-07 06:12 1.4M
20260507T00Z_MSC_CAPS_DewPointDepression_IsbL-0800_RLatLon0.03_PT021H.grib2 2026-05-07 06:12 1.4M
20260507T00Z_MSC_CAPS_DewPointDepression_IsbL-0850_RLatLon0.03_PT021H.grib2 2026-05-07 06:12 1.4M
20260507T00Z_MSC_CAPS_DewPointDepression_IsbL-0875_RLatLon0.03_PT021H.grib2 2026-05-07 06:12 1.4M
20260507T00Z_MSC_CAPS_DewPointDepression_IsbL-0900_RLatLon0.03_PT021H.grib2 2026-05-07 06:12 1.4M
20260507T00Z_MSC_CAPS_DewPointDepression_IsbL-0925_RLatLon0.03_PT021H.grib2 2026-05-07 06:12 1.4M
20260507T00Z_MSC_CAPS_DewPointDepression_IsbL-0950_RLatLon0.03_PT021H.grib2 2026-05-07 06:12 1.4M
20260507T00Z_MSC_CAPS_DewPointDepression_IsbL-0970_RLatLon0.03_PT021H.grib2 2026-05-07 06:12 1.4M
20260507T00Z_MSC_CAPS_DewPointDepression_IsbL-0985_RLatLon0.03_PT021H.grib2 2026-05-07 06:12 1.4M
20260507T00Z_MSC_CAPS_DewPointDepression_IsbL-1000_RLatLon0.03_PT021H.grib2 2026-05-07 06:12 1.4M
20260507T00Z_MSC_CAPS_DewPointDepression_IsbL-1015_RLatLon0.03_PT021H.grib2 2026-05-07 06:12 1.4M
20260507T00Z_MSC_CAPS_DewPoint_AGL-120m_RLatLon0.03_PT021H.grib2 2026-05-07 06:12 3.8M
20260507T00Z_MSC_CAPS_DewPoint_AGL-2m_RLatLon0.03_PT021H.grib2 2026-05-07 06:12 1.8M
20260507T00Z_MSC_CAPS_DewPoint_AGL-40m_RLatLon0.03_PT021H.grib2 2026-05-07 06:12 3.8M
20260507T00Z_MSC_CAPS_DewPoint_AGL-80m_RLatLon0.03_PT021H.grib2 2026-05-07 06:12 3.8M
20260507T00Z_MSC_CAPS_DownwardLongwaveRadiationFlux-Accum_Sfc_RLatLon0.03_PT021H.grib2 2026-05-07 06:12 2.3M
20260507T00Z_MSC_CAPS_DownwardShortwaveRadiationFlux-Accum_NTAtm_RLatLon0.03_PT021H.grib2 2026-05-07 06:12 488K
20260507T00Z_MSC_CAPS_DownwardShortwaveRadiationFlux-Accum_Sfc_RLatLon0.03_PT021H.grib2 2026-05-07 06:12 3.2M
20260507T00Z_MSC_CAPS_FreezingRain-Accum_Sfc_RLatLon0.03_PT021H.grib2 2026-05-07 06:12 613K
20260507T00Z_MSC_CAPS_GeopotentialHeight_IsbL-0050_RLatLon0.03_PT021H.grib2 2026-05-07 06:12 819K
20260507T00Z_MSC_CAPS_GeopotentialHeight_IsbL-0100_RLatLon0.03_PT021H.grib2 2026-05-07 06:12 742K
20260507T00Z_MSC_CAPS_GeopotentialHeight_IsbL-0150_RLatLon0.03_PT021H.grib2 2026-05-07 06:12 595K
20260507T00Z_MSC_CAPS_GeopotentialHeight_IsbL-0175_RLatLon0.03_PT021H.grib2 2026-05-07 06:12 712K
20260507T00Z_MSC_CAPS_GeopotentialHeight_IsbL-0200_RLatLon0.03_PT021H.grib2 2026-05-07 06:12 736K
20260507T00Z_MSC_CAPS_GeopotentialHeight_IsbL-0225_RLatLon0.03_PT021H.grib2 2026-05-07 06:12 750K
20260507T00Z_MSC_CAPS_GeopotentialHeight_IsbL-0250_RLatLon0.03_PT021H.grib2 2026-05-07 06:12 758K
20260507T00Z_MSC_CAPS_GeopotentialHeight_IsbL-0275_RLatLon0.03_PT021H.grib2 2026-05-07 06:12 770K
20260507T00Z_MSC_CAPS_GeopotentialHeight_IsbL-0300_RLatLon0.03_PT021H.grib2 2026-05-07 06:12 771K
20260507T00Z_MSC_CAPS_GeopotentialHeight_IsbL-0350_RLatLon0.03_PT021H.grib2 2026-05-07 06:12 773K
20260507T00Z_MSC_CAPS_GeopotentialHeight_IsbL-0400_RLatLon0.03_PT021H.grib2 2026-05-07 06:12 769K
20260507T00Z_MSC_CAPS_GeopotentialHeight_IsbL-0450_RLatLon0.03_PT021H.grib2 2026-05-07 06:12 764K
20260507T00Z_MSC_CAPS_GeopotentialHeight_IsbL-0500_RLatLon0.03_PT021H.grib2 2026-05-07 06:12 758K
20260507T00Z_MSC_CAPS_GeopotentialHeight_IsbL-0550_RLatLon0.03_PT021H.grib2 2026-05-07 06:12 635K
20260507T00Z_MSC_CAPS_GeopotentialHeight_IsbL-0600_RLatLon0.03_PT021H.grib2 2026-05-07 06:12 629K
20260507T00Z_MSC_CAPS_GeopotentialHeight_IsbL-0650_RLatLon0.03_PT021H.grib2 2026-05-07 06:12 625K
20260507T00Z_MSC_CAPS_GeopotentialHeight_IsbL-0700_RLatLon0.03_PT021H.grib2 2026-05-07 06:12 621K
20260507T00Z_MSC_CAPS_GeopotentialHeight_IsbL-0750_RLatLon0.03_PT021H.grib2 2026-05-07 06:12 622K
20260507T00Z_MSC_CAPS_GeopotentialHeight_IsbL-0800_RLatLon0.03_PT021H.grib2 2026-05-07 06:12 620K
20260507T00Z_MSC_CAPS_GeopotentialHeight_IsbL-0850_RLatLon0.03_PT021H.grib2 2026-05-07 06:12 808K
20260507T00Z_MSC_CAPS_GeopotentialHeight_IsbL-0875_RLatLon0.03_PT021H.grib2 2026-05-07 06:12 816K
20260507T00Z_MSC_CAPS_GeopotentialHeight_IsbL-0900_RLatLon0.03_PT021H.grib2 2026-05-07 06:12 824K
20260507T00Z_MSC_CAPS_GeopotentialHeight_IsbL-0925_RLatLon0.03_PT021H.grib2 2026-05-07 06:12 833K
20260507T00Z_MSC_CAPS_GeopotentialHeight_IsbL-0950_RLatLon0.03_PT021H.grib2 2026-05-07 06:12 843K
20260507T00Z_MSC_CAPS_GeopotentialHeight_IsbL-0970_RLatLon0.03_PT021H.grib2 2026-05-07 06:12 854K
20260507T00Z_MSC_CAPS_GeopotentialHeight_IsbL-0985_RLatLon0.03_PT021H.grib2 2026-05-07 06:12 863K
20260507T00Z_MSC_CAPS_GeopotentialHeight_IsbL-1000_RLatLon0.03_PT021H.grib2 2026-05-07 06:12 873K
20260507T00Z_MSC_CAPS_GeopotentialHeight_IsbL-1015_RLatLon0.03_PT021H.grib2 2026-05-07 06:12 884K
20260507T00Z_MSC_CAPS_GeopotentialHeight_Sfc_RLatLon0.03_PT021H.grib2 2026-05-07 06:12 1.0M
20260507T00Z_MSC_CAPS_IcePellets-Accum_Sfc_RLatLon0.03_PT021H.grib2 2026-05-07 06:12 12K
20260507T00Z_MSC_CAPS_LatentHeatNetFlux_Sfc_RLatLon0.03_PT021H.grib2 2026-05-07 06:12 2.0M
20260507T00Z_MSC_CAPS_LiftedIndex-MU-VT_IsbL-0500_RLatLon0.03_PT021H.grib2 2026-05-07 06:12 3.3M
20260507T00Z_MSC_CAPS_MixedLayerThickness_Sfc_RLatLon0.03_PT021H.nc 2026-05-07 06:12 16M
20260507T00Z_MSC_CAPS_NetLongwaveRadiationFlux-Accum_Sfc_RLatLon0.03_PT021H.grib2 2026-05-07 06:12 3.0M
20260507T00Z_MSC_CAPS_NetShortwaveRadiationFlux-Accum_Sfc_RLatLon0.03_PT021H.grib2 2026-05-07 06:12 3.2M
20260507T00Z_MSC_CAPS_PlanetaryBoundaryLayerHeight_Sfc_RLatLon0.03_PT021H.grib2 2026-05-07 06:12 3.1M
20260507T00Z_MSC_CAPS_Precip-Accum_Sfc_RLatLon0.03_PT021H.grib2 2026-05-07 06:12 4.8M
20260507T00Z_MSC_CAPS_PrecipRate_Sfc_RLatLon0.03_PT021H.grib2 2026-05-07 06:12 321K
20260507T00Z_MSC_CAPS_PrecipType-Instant_Sfc_RLatLon0.03_PT021H.grib2 2026-05-07 06:12 2.0M
20260507T00Z_MSC_CAPS_Pressure_MSL_RLatLon0.03_PT021H.grib2 2026-05-07 06:12 761K
20260507T00Z_MSC_CAPS_Pressure_Sfc_RLatLon0.03_PT021H.grib2 2026-05-07 06:12 1.2M
20260507T00Z_MSC_CAPS_RadiativeTemp_Sfc_RLatLon0.03_PT021H.grib2 2026-05-07 06:12 2.1M
20260507T00Z_MSC_CAPS_Rain-Accum_Sfc_RLatLon0.03_PT021H.grib2 2026-05-07 06:12 2.3M
20260507T00Z_MSC_CAPS_RelativeHumidity_AGL-120m_RLatLon0.03_PT021H.grib2 2026-05-07 06:12 2.9M
20260507T00Z_MSC_CAPS_RelativeHumidity_AGL-2m_RLatLon0.03_PT021H.grib2 2026-05-07 06:12 3.0M
20260507T00Z_MSC_CAPS_RelativeHumidity_AGL-40m_RLatLon0.03_PT021H.grib2 2026-05-07 06:12 2.9M
20260507T00Z_MSC_CAPS_RelativeHumidity_AGL-80m_RLatLon0.03_PT021H.grib2 2026-05-07 06:12 2.9M
20260507T00Z_MSC_CAPS_RelativeHumidity_IsbL-0050_RLatLon0.03_PT021H.grib2 2026-05-07 06:12 713K
20260507T00Z_MSC_CAPS_RelativeHumidity_IsbL-0100_RLatLon0.03_PT021H.grib2 2026-05-07 06:12 1.1M
20260507T00Z_MSC_CAPS_RelativeHumidity_IsbL-0150_RLatLon0.03_PT021H.grib2 2026-05-07 06:12 715K
20260507T00Z_MSC_CAPS_RelativeHumidity_IsbL-0175_RLatLon0.03_PT021H.grib2 2026-05-07 06:12 467K
20260507T00Z_MSC_CAPS_RelativeHumidity_IsbL-0200_RLatLon0.03_PT021H.grib2 2026-05-07 06:12 669K
20260507T00Z_MSC_CAPS_RelativeHumidity_IsbL-0225_RLatLon0.03_PT021H.grib2 2026-05-07 06:12 913K
20260507T00Z_MSC_CAPS_RelativeHumidity_IsbL-0250_RLatLon0.03_PT021H.grib2 2026-05-07 06:12 1.1M
20260507T00Z_MSC_CAPS_RelativeHumidity_IsbL-0275_RLatLon0.03_PT021H.grib2 2026-05-07 06:12 1.4M
20260507T00Z_MSC_CAPS_RelativeHumidity_IsbL-0300_RLatLon0.03_PT021H.grib2 2026-05-07 06:12 1.7M
20260507T00Z_MSC_CAPS_RelativeHumidity_IsbL-0350_RLatLon0.03_PT021H.grib2 2026-05-07 06:12 2.0M
20260507T00Z_MSC_CAPS_RelativeHumidity_IsbL-0400_RLatLon0.03_PT021H.grib2 2026-05-07 06:12 2.1M
20260507T00Z_MSC_CAPS_RelativeHumidity_IsbL-0450_RLatLon0.03_PT021H.grib2 2026-05-07 06:12 2.0M
20260507T00Z_MSC_CAPS_RelativeHumidity_IsbL-0500_RLatLon0.03_PT021H.grib2 2026-05-07 06:12 2.2M
20260507T00Z_MSC_CAPS_RelativeHumidity_IsbL-0550_RLatLon0.03_PT021H.grib2 2026-05-07 06:12 2.2M
20260507T00Z_MSC_CAPS_RelativeHumidity_IsbL-0600_RLatLon0.03_PT021H.grib2 2026-05-07 06:12 2.3M
20260507T00Z_MSC_CAPS_RelativeHumidity_IsbL-0650_RLatLon0.03_PT021H.grib2 2026-05-07 06:12 2.3M
20260507T00Z_MSC_CAPS_RelativeHumidity_IsbL-0700_RLatLon0.03_PT021H.grib2 2026-05-07 06:12 2.3M
20260507T00Z_MSC_CAPS_RelativeHumidity_IsbL-0750_RLatLon0.03_PT021H.grib2 2026-05-07 06:12 2.4M
20260507T00Z_MSC_CAPS_RelativeHumidity_IsbL-0800_RLatLon0.03_PT021H.grib2 2026-05-07 06:12 2.6M
20260507T00Z_MSC_CAPS_RelativeHumidity_IsbL-0850_RLatLon0.03_PT021H.grib2 2026-05-07 06:12 2.7M
20260507T00Z_MSC_CAPS_RelativeHumidity_IsbL-0875_RLatLon0.03_PT021H.grib2 2026-05-07 06:12 2.7M
20260507T00Z_MSC_CAPS_RelativeHumidity_IsbL-0900_RLatLon0.03_PT021H.grib2 2026-05-07 06:12 2.7M
20260507T00Z_MSC_CAPS_RelativeHumidity_IsbL-0925_RLatLon0.03_PT021H.grib2 2026-05-07 06:12 2.8M
20260507T00Z_MSC_CAPS_RelativeHumidity_IsbL-0950_RLatLon0.03_PT021H.grib2 2026-05-07 06:12 2.8M
20260507T00Z_MSC_CAPS_RelativeHumidity_IsbL-0970_RLatLon0.03_PT021H.grib2 2026-05-07 06:12 2.9M
20260507T00Z_MSC_CAPS_RelativeHumidity_IsbL-0985_RLatLon0.03_PT021H.grib2 2026-05-07 06:12 2.9M
20260507T00Z_MSC_CAPS_RelativeHumidity_IsbL-1000_RLatLon0.03_PT021H.grib2 2026-05-07 06:12 3.0M
20260507T00Z_MSC_CAPS_RelativeHumidity_IsbL-1015_RLatLon0.03_PT021H.grib2 2026-05-07 06:12 3.0M
20260507T00Z_MSC_CAPS_Runoff-Accum_Sfc_RLatLon0.03_PT021H.grib2 2026-05-07 06:12 338K
20260507T00Z_MSC_CAPS_SeaIceAreaFraction_Sfc_RLatLon0.03_PT021H.nc 2026-05-07 06:12 15M
20260507T00Z_MSC_CAPS_SeaIceCompressiveStrength_Sfc_RLatLon0.03_PT021H.nc 2026-05-07 06:13 15M
20260507T00Z_MSC_CAPS_SeaIceDivergence_Sfc_RLatLon0.03_PT021H.nc 2026-05-07 06:13 15M
20260507T00Z_MSC_CAPS_SeaIceInternalPressure_Sfc_RLatLon0.03_PT021H.nc 2026-05-07 06:13 15M
20260507T00Z_MSC_CAPS_SeaIceShear_Sfc_RLatLon0.03_PT021H.nc 2026-05-07 06:13 15M
20260507T00Z_MSC_CAPS_SeaIceSnowTemp_Sfc_RLatLon0.03_PT021H.nc 2026-05-07 06:13 14M
20260507T00Z_MSC_CAPS_SeaIceSnowVolume_Sfc_RLatLon0.03_PT021H.nc 2026-05-07 06:13 15M
20260507T00Z_MSC_CAPS_SeaIceVelocityX_Sfc_RLatLon0.03_PT021H.nc 2026-05-07 06:13 15M
20260507T00Z_MSC_CAPS_SeaIceVelocityY_Sfc_RLatLon0.03_PT021H.nc 2026-05-07 06:13 15M
20260507T00Z_MSC_CAPS_SeaIceVolume_Sfc_RLatLon0.03_PT021H.nc 2026-05-07 06:13 15M
20260507T00Z_MSC_CAPS_SeaSurfaceHeight_Sfc_RLatLon0.03_PT021H.nc 2026-05-07 06:13 16M
20260507T00Z_MSC_CAPS_SeaWaterSalinity_DBS-0.5m_RLatLon0.03_PT021H.nc 2026-05-07 06:13 16M
20260507T00Z_MSC_CAPS_SeaWaterSalinity_DBS-all_RLatLon0.03_PT021H.nc 2026-05-07 06:13 107M
20260507T00Z_MSC_CAPS_SeaWaterTemp_DBS-0.5m_RLatLon0.03_PT021H.nc 2026-05-07 06:13 15M
20260507T00Z_MSC_CAPS_SeaWaterTemp_DBS-all_RLatLon0.03_PT021H.nc 2026-05-07 06:13 88M
20260507T00Z_MSC_CAPS_SeaWaterVelocityX_DBS-0.5m_RLatLon0.03_PT021H.nc 2026-05-07 06:13 17M
20260507T00Z_MSC_CAPS_SeaWaterVelocityX_DBS-all_RLatLon0.03_PT021H.nc 2026-05-07 06:13 205M
20260507T00Z_MSC_CAPS_SeaWaterVelocityY_DBS-0.5m_RLatLon0.03_PT021H.nc 2026-05-07 06:13 18M
20260507T00Z_MSC_CAPS_SeaWaterVelocityY_DBS-all_RLatLon0.03_PT021H.nc 2026-05-07 06:13 218M
20260507T00Z_MSC_CAPS_SensibleHeatNetFlux_Sfc_RLatLon0.03_PT021H.grib2 2026-05-07 06:12 1.8M
20260507T00Z_MSC_CAPS_ShowalterIndex_IsbL-0500_RLatLon0.03_PT021H.grib2 2026-05-07 06:12 4.3M
20260507T00Z_MSC_CAPS_Snow-Accum_Sfc_RLatLon0.03_PT021H.grib2 2026-05-07 06:12 3.6M
20260507T00Z_MSC_CAPS_SnowDensity_Sfc_RLatLon0.03_PT021H.grib2 2026-05-07 06:12 1.3M
20260507T00Z_MSC_CAPS_SnowDepthWaterEquivalent_Sfc_RLatLon0.03_PT021H.grib2 2026-05-07 06:12 643K
20260507T00Z_MSC_CAPS_SnowDepth_Sfc_RLatLon0.03_PT021H.grib2 2026-05-07 06:12 1.1M
20260507T00Z_MSC_CAPS_SoilTemp_DBS-0to10cm_RLatLon0.03_PT021H.grib2 2026-05-07 06:12 1.6M
20260507T00Z_MSC_CAPS_SoilTemp_Sfc_RLatLon0.03_PT021H.grib2 2026-05-07 06:12 1.8M
20260507T00Z_MSC_CAPS_SoilVolumetricIceContent_Sfc_RLatLon0.03_PT021H.grib2 2026-05-07 06:12 1.3M
20260507T00Z_MSC_CAPS_SoilVolumetricWaterContent_DBS-0to10cm_RLatLon0.03_PT021H.grib2 2026-05-07 06:12 1.3M
20260507T00Z_MSC_CAPS_SoilVolumetricWaterContent_DBS-0to1cm_RLatLon0.03_PT021H.grib2 2026-05-07 06:12 1.7M
20260507T00Z_MSC_CAPS_SpecificHumidity_AGL-120m_RLatLon0.03_PT021H.grib2 2026-05-07 06:12 1.9M
20260507T00Z_MSC_CAPS_SpecificHumidity_AGL-2m_RLatLon0.03_PT021H.grib2 2026-05-07 06:12 1.8M
20260507T00Z_MSC_CAPS_SpecificHumidity_AGL-40m_RLatLon0.03_PT021H.grib2 2026-05-07 06:12 1.6M
20260507T00Z_MSC_CAPS_SpecificHumidity_AGL-80m_RLatLon0.03_PT021H.grib2 2026-05-07 06:12 1.6M
20260507T00Z_MSC_CAPS_SpecificHumidity_IsbL-0050_RLatLon0.03_PT021H.grib2 2026-05-07 06:12 901K
20260507T00Z_MSC_CAPS_SpecificHumidity_IsbL-0100_RLatLon0.03_PT021H.grib2 2026-05-07 06:12 956K
20260507T00Z_MSC_CAPS_SpecificHumidity_IsbL-0150_RLatLon0.03_PT021H.grib2 2026-05-07 06:12 858K
20260507T00Z_MSC_CAPS_SpecificHumidity_IsbL-0175_RLatLon0.03_PT021H.grib2 2026-05-07 06:12 741K
20260507T00Z_MSC_CAPS_SpecificHumidity_IsbL-0200_RLatLon0.03_PT021H.grib2 2026-05-07 06:12 886K
20260507T00Z_MSC_CAPS_SpecificHumidity_IsbL-0225_RLatLon0.03_PT021H.grib2 2026-05-07 06:12 860K
20260507T00Z_MSC_CAPS_SpecificHumidity_IsbL-0250_RLatLon0.03_PT021H.grib2 2026-05-07 06:12 1.1M
20260507T00Z_MSC_CAPS_SpecificHumidity_IsbL-0275_RLatLon0.03_PT021H.grib2 2026-05-07 06:12 1.1M
20260507T00Z_MSC_CAPS_SpecificHumidity_IsbL-0300_RLatLon0.03_PT021H.grib2 2026-05-07 06:12 1.1M
20260507T00Z_MSC_CAPS_SpecificHumidity_IsbL-0350_RLatLon0.03_PT021H.grib2 2026-05-07 06:12 1.0M
20260507T00Z_MSC_CAPS_SpecificHumidity_IsbL-0400_RLatLon0.03_PT021H.grib2 2026-05-07 06:12 1.0M
20260507T00Z_MSC_CAPS_SpecificHumidity_IsbL-0450_RLatLon0.03_PT021H.grib2 2026-05-07 06:12 1.2M
20260507T00Z_MSC_CAPS_SpecificHumidity_IsbL-0500_RLatLon0.03_PT021H.grib2 2026-05-07 06:12 1.1M
20260507T00Z_MSC_CAPS_SpecificHumidity_IsbL-0550_RLatLon0.03_PT021H.grib2 2026-05-07 06:12 1.3M
20260507T00Z_MSC_CAPS_SpecificHumidity_IsbL-0600_RLatLon0.03_PT021H.grib2 2026-05-07 06:12 1.5M
20260507T00Z_MSC_CAPS_SpecificHumidity_IsbL-0650_RLatLon0.03_PT021H.grib2 2026-05-07 06:12 1.5M
20260507T00Z_MSC_CAPS_SpecificHumidity_IsbL-0700_RLatLon0.03_PT021H.grib2 2026-05-07 06:12 1.3M
20260507T00Z_MSC_CAPS_SpecificHumidity_IsbL-0750_RLatLon0.03_PT021H.grib2 2026-05-07 06:12 1.5M
20260507T00Z_MSC_CAPS_SpecificHumidity_IsbL-0800_RLatLon0.03_PT021H.grib2 2026-05-07 06:12 1.7M
20260507T00Z_MSC_CAPS_SpecificHumidity_IsbL-0850_RLatLon0.03_PT021H.grib2 2026-05-07 06:12 1.8M
20260507T00Z_MSC_CAPS_SpecificHumidity_IsbL-0875_RLatLon0.03_PT021H.grib2 2026-05-07 06:12 1.9M
20260507T00Z_MSC_CAPS_SpecificHumidity_IsbL-0900_RLatLon0.03_PT021H.grib2 2026-05-07 06:12 2.0M
20260507T00Z_MSC_CAPS_SpecificHumidity_IsbL-0925_RLatLon0.03_PT021H.grib2 2026-05-07 06:12 1.6M
20260507T00Z_MSC_CAPS_SpecificHumidity_IsbL-0950_RLatLon0.03_PT021H.grib2 2026-05-07 06:12 1.7M
20260507T00Z_MSC_CAPS_SpecificHumidity_IsbL-0970_RLatLon0.03_PT021H.grib2 2026-05-07 06:12 1.7M
20260507T00Z_MSC_CAPS_SpecificHumidity_IsbL-0985_RLatLon0.03_PT021H.grib2 2026-05-07 06:12 2.2M
20260507T00Z_MSC_CAPS_SpecificHumidity_IsbL-1000_RLatLon0.03_PT021H.grib2 2026-05-07 06:12 1.8M
20260507T00Z_MSC_CAPS_SpecificHumidity_IsbL-1015_RLatLon0.03_PT021H.grib2 2026-05-07 06:12 1.8M
20260507T00Z_MSC_CAPS_SpecificHumidity_Sfc_RLatLon0.03_PT021H.grib2 2026-05-07 06:12 2.1M
20260507T00Z_MSC_CAPS_StormRelativeHelicity_Sfc_RLatLon0.03_PT021H.grib2 2026-05-07 06:12 3.1M
20260507T00Z_MSC_CAPS_Thickness_IsbL-1000to0500_RLatLon0.03_PT021H.grib2 2026-05-07 06:12 411K
20260507T00Z_MSC_CAPS_TotalCloudCover_Sfc_RLatLon0.03_PT021H.grib2 2026-05-07 06:12 3.8M
20260507T00Z_MSC_CAPS_TurboclineDepth_Sfc_RLatLon0.03_PT021H.nc 2026-05-07 06:13 16M
20260507T00Z_MSC_CAPS_UpwardLongwaveRadiationFlux_NTAtm_RLatLon0.03_PT021H.grib2 2026-05-07 06:12 3.0M
20260507T00Z_MSC_CAPS_UpwardShortwaveRadiationFlux_NTAtm_RLatLon0.03_PT021H.grib2 2026-05-07 06:12 2.6M
20260507T00Z_MSC_CAPS_VerticalVelocity_IsbL-0250_RLatLon0.03_PT021H.grib2 2026-05-07 06:12 1.2M
20260507T00Z_MSC_CAPS_VerticalVelocity_IsbL-0500_RLatLon0.03_PT021H.grib2 2026-05-07 06:12 1.2M
20260507T00Z_MSC_CAPS_VerticalVelocity_IsbL-0700_RLatLon0.03_PT021H.grib2 2026-05-07 06:12 1.2M
20260507T00Z_MSC_CAPS_VerticalVelocity_IsbL-0850_RLatLon0.03_PT021H.grib2 2026-05-07 06:12 1.4M
20260507T00Z_MSC_CAPS_VerticalVelocity_IsbL-1000_RLatLon0.03_PT021H.grib2 2026-05-07 06:12 1.3M
20260507T00Z_MSC_CAPS_WindDir_AGL-10m_RLatLon0.03_PT021H.grib2 2026-05-07 06:12 2.5M
20260507T00Z_MSC_CAPS_WindDir_AGL-120m_RLatLon0.03_PT021H.grib2 2026-05-07 06:12 1.3M
20260507T00Z_MSC_CAPS_WindDir_AGL-40m_RLatLon0.03_PT021H.grib2 2026-05-07 06:12 1.5M
20260507T00Z_MSC_CAPS_WindDir_AGL-80m_RLatLon0.03_PT021H.grib2 2026-05-07 06:12 1.4M
20260507T00Z_MSC_CAPS_WindDir_IsbL-0050_RLatLon0.03_PT021H.grib2 2026-05-07 06:12 1.1M
20260507T00Z_MSC_CAPS_WindDir_IsbL-0100_RLatLon0.03_PT021H.grib2 2026-05-07 06:12 1.0M
20260507T00Z_MSC_CAPS_WindDir_IsbL-0150_RLatLon0.03_PT021H.grib2 2026-05-07 06:12 1.1M
20260507T00Z_MSC_CAPS_WindDir_IsbL-0175_RLatLon0.03_PT021H.grib2 2026-05-07 06:12 1.1M
20260507T00Z_MSC_CAPS_WindDir_IsbL-0200_RLatLon0.03_PT021H.grib2 2026-05-07 06:12 1.2M
20260507T00Z_MSC_CAPS_WindDir_IsbL-0225_RLatLon0.03_PT021H.grib2 2026-05-07 06:12 1.1M
20260507T00Z_MSC_CAPS_WindDir_IsbL-0250_RLatLon0.03_PT021H.grib2 2026-05-07 06:12 1.1M
20260507T00Z_MSC_CAPS_WindDir_IsbL-0275_RLatLon0.03_PT021H.grib2 2026-05-07 06:12 1.1M
20260507T00Z_MSC_CAPS_WindDir_IsbL-0300_RLatLon0.03_PT021H.grib2 2026-05-07 06:12 1.1M
20260507T00Z_MSC_CAPS_WindDir_IsbL-0350_RLatLon0.03_PT021H.grib2 2026-05-07 06:12 1.1M
20260507T00Z_MSC_CAPS_WindDir_IsbL-0400_RLatLon0.03_PT021H.grib2 2026-05-07 06:12 1.2M
20260507T00Z_MSC_CAPS_WindDir_IsbL-0450_RLatLon0.03_PT021H.grib2 2026-05-07 06:12 1.2M
20260507T00Z_MSC_CAPS_WindDir_IsbL-0500_RLatLon0.03_PT021H.grib2 2026-05-07 06:12 1.3M
20260507T00Z_MSC_CAPS_WindDir_IsbL-0550_RLatLon0.03_PT021H.grib2 2026-05-07 06:12 1.2M
20260507T00Z_MSC_CAPS_WindDir_IsbL-0600_RLatLon0.03_PT021H.grib2 2026-05-07 06:12 1.3M
20260507T00Z_MSC_CAPS_WindDir_IsbL-0650_RLatLon0.03_PT021H.grib2 2026-05-07 06:12 1.4M
20260507T00Z_MSC_CAPS_WindDir_IsbL-0700_RLatLon0.03_PT021H.grib2 2026-05-07 06:12 1.5M
20260507T00Z_MSC_CAPS_WindDir_IsbL-0750_RLatLon0.03_PT021H.grib2 2026-05-07 06:12 1.6M
20260507T00Z_MSC_CAPS_WindDir_IsbL-0800_RLatLon0.03_PT021H.grib2 2026-05-07 06:12 1.8M
20260507T00Z_MSC_CAPS_WindDir_IsbL-0850_RLatLon0.03_PT021H.grib2 2026-05-07 06:12 1.9M
20260507T00Z_MSC_CAPS_WindDir_IsbL-0875_RLatLon0.03_PT021H.grib2 2026-05-07 06:12 2.0M
20260507T00Z_MSC_CAPS_WindDir_IsbL-0900_RLatLon0.03_PT021H.grib2 2026-05-07 06:12 2.0M
20260507T00Z_MSC_CAPS_WindDir_IsbL-0925_RLatLon0.03_PT021H.grib2 2026-05-07 06:12 2.1M
20260507T00Z_MSC_CAPS_WindDir_IsbL-0950_RLatLon0.03_PT021H.grib2 2026-05-07 06:12 2.2M
20260507T00Z_MSC_CAPS_WindDir_IsbL-0970_RLatLon0.03_PT021H.grib2 2026-05-07 06:12 2.2M
20260507T00Z_MSC_CAPS_WindDir_IsbL-0985_RLatLon0.03_PT021H.grib2 2026-05-07 06:12 2.3M
20260507T00Z_MSC_CAPS_WindDir_IsbL-1000_RLatLon0.03_PT021H.grib2 2026-05-07 06:12 2.4M
20260507T00Z_MSC_CAPS_WindDir_IsbL-1015_RLatLon0.03_PT021H.grib2 2026-05-07 06:12 2.4M
20260507T00Z_MSC_CAPS_WindGust-Max_AGL-10m_RLatLon0.03_PT021H.grib2 2026-05-07 06:12 2.5M
20260507T00Z_MSC_CAPS_WindGust-Min_AGL-10m_RLatLon0.03_PT021H.grib2 2026-05-07 06:12 2.4M
20260507T00Z_MSC_CAPS_WindGust_AGL-10m_RLatLon0.03_PT021H.grib2 2026-05-07 06:12 2.5M
20260507T00Z_MSC_CAPS_WindSpeed_AGL-10m_RLatLon0.03_PT021H.grib2 2026-05-07 06:12 2.1M
20260507T00Z_MSC_CAPS_WindSpeed_AGL-120m_RLatLon0.03_PT021H.grib2 2026-05-07 06:12 1.1M
20260507T00Z_MSC_CAPS_WindSpeed_AGL-40m_RLatLon0.03_PT021H.grib2 2026-05-07 06:12 1.5M
20260507T00Z_MSC_CAPS_WindSpeed_AGL-80m_RLatLon0.03_PT021H.grib2 2026-05-07 06:12 1.1M
20260507T00Z_MSC_CAPS_WindSpeed_IsbL-0050_RLatLon0.03_PT021H.grib2 2026-05-07 06:12 947K
20260507T00Z_MSC_CAPS_WindSpeed_IsbL-0100_RLatLon0.03_PT021H.grib2 2026-05-07 06:12 1.1M
20260507T00Z_MSC_CAPS_WindSpeed_IsbL-0150_RLatLon0.03_PT021H.grib2 2026-05-07 06:12 1.0M
20260507T00Z_MSC_CAPS_WindSpeed_IsbL-0175_RLatLon0.03_PT021H.grib2 2026-05-07 06:12 1.1M
20260507T00Z_MSC_CAPS_WindSpeed_IsbL-0200_RLatLon0.03_PT021H.grib2 2026-05-07 06:12 942K
20260507T00Z_MSC_CAPS_WindSpeed_IsbL-0225_RLatLon0.03_PT021H.grib2 2026-05-07 06:12 1.0M
20260507T00Z_MSC_CAPS_WindSpeed_IsbL-0250_RLatLon0.03_PT021H.grib2 2026-05-07 06:12 1.0M
20260507T00Z_MSC_CAPS_WindSpeed_IsbL-0275_RLatLon0.03_PT021H.grib2 2026-05-07 06:12 1.0M
20260507T00Z_MSC_CAPS_WindSpeed_IsbL-0300_RLatLon0.03_PT021H.grib2 2026-05-07 06:12 1.0M
20260507T00Z_MSC_CAPS_WindSpeed_IsbL-0350_RLatLon0.03_PT021H.grib2 2026-05-07 06:12 1.0M
20260507T00Z_MSC_CAPS_WindSpeed_IsbL-0400_RLatLon0.03_PT021H.grib2 2026-05-07 06:12 1.3M
20260507T00Z_MSC_CAPS_WindSpeed_IsbL-0450_RLatLon0.03_PT021H.grib2 2026-05-07 06:12 1.3M
20260507T00Z_MSC_CAPS_WindSpeed_IsbL-0500_RLatLon0.03_PT021H.grib2 2026-05-07 06:12 1.4M
20260507T00Z_MSC_CAPS_WindSpeed_IsbL-0550_RLatLon0.03_PT021H.grib2 2026-05-07 06:12 1.4M
20260507T00Z_MSC_CAPS_WindSpeed_IsbL-0600_RLatLon0.03_PT021H.grib2 2026-05-07 06:12 1.4M
20260507T00Z_MSC_CAPS_WindSpeed_IsbL-0650_RLatLon0.03_PT021H.grib2 2026-05-07 06:12 1.4M
20260507T00Z_MSC_CAPS_WindSpeed_IsbL-0700_RLatLon0.03_PT021H.grib2 2026-05-07 06:12 1.5M
20260507T00Z_MSC_CAPS_WindSpeed_IsbL-0750_RLatLon0.03_PT021H.grib2 2026-05-07 06:12 1.6M
20260507T00Z_MSC_CAPS_WindSpeed_IsbL-0800_RLatLon0.03_PT021H.grib2 2026-05-07 06:12 1.7M
20260507T00Z_MSC_CAPS_WindSpeed_IsbL-0850_RLatLon0.03_PT021H.grib2 2026-05-07 06:12 1.7M
20260507T00Z_MSC_CAPS_WindSpeed_IsbL-0875_RLatLon0.03_PT021H.grib2 2026-05-07 06:12 1.7M
20260507T00Z_MSC_CAPS_WindSpeed_IsbL-0900_RLatLon0.03_PT021H.grib2 2026-05-07 06:12 1.8M
20260507T00Z_MSC_CAPS_WindSpeed_IsbL-0925_RLatLon0.03_PT021H.grib2 2026-05-07 06:12 1.8M
20260507T00Z_MSC_CAPS_WindSpeed_IsbL-0950_RLatLon0.03_PT021H.grib2 2026-05-07 06:12 1.9M
20260507T00Z_MSC_CAPS_WindSpeed_IsbL-0970_RLatLon0.03_PT021H.grib2 2026-05-07 06:12 1.9M
20260507T00Z_MSC_CAPS_WindSpeed_IsbL-0985_RLatLon0.03_PT021H.grib2 2026-05-07 06:12 2.0M
20260507T00Z_MSC_CAPS_WindSpeed_IsbL-1000_RLatLon0.03_PT021H.grib2 2026-05-07 06:12 2.0M
20260507T00Z_MSC_CAPS_WindSpeed_IsbL-1015_RLatLon0.03_PT021H.grib2 2026-05-07 06:12 2.0M
20260507T00Z_MSC_CAPS_WindU_AGL-10m_RLatLon0.03_PT021H.grib2 2026-05-07 06:12 2.0M
20260507T00Z_MSC_CAPS_WindU_AGL-120m_RLatLon0.03_PT021H.grib2 2026-05-07 06:12 1.2M
20260507T00Z_MSC_CAPS_WindU_AGL-40m_RLatLon0.03_PT021H.grib2 2026-05-07 06:12 1.2M
20260507T00Z_MSC_CAPS_WindU_AGL-80m_RLatLon0.03_PT021H.grib2 2026-05-07 06:12 1.2M
20260507T00Z_MSC_CAPS_WindU_IsbL-0050_RLatLon0.03_PT021H.grib2 2026-05-07 06:12 938K
20260507T00Z_MSC_CAPS_WindU_IsbL-0100_RLatLon0.03_PT021H.grib2 2026-05-07 06:12 788K
20260507T00Z_MSC_CAPS_WindU_IsbL-0150_RLatLon0.03_PT021H.grib2 2026-05-07 06:12 922K
20260507T00Z_MSC_CAPS_WindU_IsbL-0175_RLatLon0.03_PT021H.grib2 2026-05-07 06:12 733K
20260507T00Z_MSC_CAPS_WindU_IsbL-0200_RLatLon0.03_PT021H.grib2 2026-05-07 06:12 882K
20260507T00Z_MSC_CAPS_WindU_IsbL-0225_RLatLon0.03_PT021H.grib2 2026-05-07 06:12 900K
20260507T00Z_MSC_CAPS_WindU_IsbL-0250_RLatLon0.03_PT021H.grib2 2026-05-07 06:12 917K
20260507T00Z_MSC_CAPS_WindU_IsbL-0275_RLatLon0.03_PT021H.grib2 2026-05-07 06:12 712K
20260507T00Z_MSC_CAPS_WindU_IsbL-0300_RLatLon0.03_PT021H.grib2 2026-05-07 06:12 719K
20260507T00Z_MSC_CAPS_WindU_IsbL-0350_RLatLon0.03_PT021H.grib2 2026-05-07 06:12 731K
20260507T00Z_MSC_CAPS_WindU_IsbL-0400_RLatLon0.03_PT021H.grib2 2026-05-07 06:12 953K
20260507T00Z_MSC_CAPS_WindU_IsbL-0450_RLatLon0.03_PT021H.grib2 2026-05-07 06:12 1.0M
20260507T00Z_MSC_CAPS_WindU_IsbL-0500_RLatLon0.03_PT021H.grib2 2026-05-07 06:12 1.0M
20260507T00Z_MSC_CAPS_WindU_IsbL-0550_RLatLon0.03_PT021H.grib2 2026-05-07 06:12 913K
20260507T00Z_MSC_CAPS_WindU_IsbL-0600_RLatLon0.03_PT021H.grib2 2026-05-07 06:12 940K
20260507T00Z_MSC_CAPS_WindU_IsbL-0650_RLatLon0.03_PT021H.grib2 2026-05-07 06:12 1.2M
20260507T00Z_MSC_CAPS_WindU_IsbL-0700_RLatLon0.03_PT021H.grib2 2026-05-07 06:12 1.3M
20260507T00Z_MSC_CAPS_WindU_IsbL-0750_RLatLon0.03_PT021H.grib2 2026-05-07 06:12 1.4M
20260507T00Z_MSC_CAPS_WindU_IsbL-0800_RLatLon0.03_PT021H.grib2 2026-05-07 06:12 1.4M
20260507T00Z_MSC_CAPS_WindU_IsbL-0850_RLatLon0.03_PT021H.grib2 2026-05-07 06:12 1.5M
20260507T00Z_MSC_CAPS_WindU_IsbL-0875_RLatLon0.03_PT021H.grib2 2026-05-07 06:12 1.6M
20260507T00Z_MSC_CAPS_WindU_IsbL-0900_RLatLon0.03_PT021H.grib2 2026-05-07 06:12 1.6M
20260507T00Z_MSC_CAPS_WindU_IsbL-0925_RLatLon0.03_PT021H.grib2 2026-05-07 06:12 1.3M
20260507T00Z_MSC_CAPS_WindU_IsbL-0950_RLatLon0.03_PT021H.grib2 2026-05-07 06:12 1.4M
20260507T00Z_MSC_CAPS_WindU_IsbL-0970_RLatLon0.03_PT021H.grib2 2026-05-07 06:12 1.4M
20260507T00Z_MSC_CAPS_WindU_IsbL-0985_RLatLon0.03_PT021H.grib2 2026-05-07 06:12 1.8M
20260507T00Z_MSC_CAPS_WindU_IsbL-1000_RLatLon0.03_PT021H.grib2 2026-05-07 06:12 1.8M
20260507T00Z_MSC_CAPS_WindU_IsbL-1015_RLatLon0.03_PT021H.grib2 2026-05-07 06:12 2.0M
20260507T00Z_MSC_CAPS_WindV_AGL-10m_RLatLon0.03_PT021H.grib2 2026-05-07 06:12 1.9M
20260507T00Z_MSC_CAPS_WindV_AGL-120m_RLatLon0.03_PT021H.grib2 2026-05-07 06:12 1.1M
20260507T00Z_MSC_CAPS_WindV_AGL-40m_RLatLon0.03_PT021H.grib2 2026-05-07 06:12 1.2M
20260507T00Z_MSC_CAPS_WindV_AGL-80m_RLatLon0.03_PT021H.grib2 2026-05-07 06:12 1.1M
20260507T00Z_MSC_CAPS_WindV_IsbL-0050_RLatLon0.03_PT021H.grib2 2026-05-07 06:12 765K
20260507T00Z_MSC_CAPS_WindV_IsbL-0100_RLatLon0.03_PT021H.grib2 2026-05-07 06:12 783K
20260507T00Z_MSC_CAPS_WindV_IsbL-0150_RLatLon0.03_PT021H.grib2 2026-05-07 06:12 913K
20260507T00Z_MSC_CAPS_WindV_IsbL-0175_RLatLon0.03_PT021H.grib2 2026-05-07 06:12 848K
20260507T00Z_MSC_CAPS_WindV_IsbL-0200_RLatLon0.03_PT021H.grib2 2026-05-07 06:12 871K
20260507T00Z_MSC_CAPS_WindV_IsbL-0225_RLatLon0.03_PT021H.grib2 2026-05-07 06:12 684K
20260507T00Z_MSC_CAPS_WindV_IsbL-0250_RLatLon0.03_PT021H.grib2 2026-05-07 06:12 697K
20260507T00Z_MSC_CAPS_WindV_IsbL-0275_RLatLon0.03_PT021H.grib2 2026-05-07 06:12 704K
20260507T00Z_MSC_CAPS_WindV_IsbL-0300_RLatLon0.03_PT021H.grib2 2026-05-07 06:12 711K
20260507T00Z_MSC_CAPS_WindV_IsbL-0350_RLatLon0.03_PT021H.grib2 2026-05-07 06:12 938K
20260507T00Z_MSC_CAPS_WindV_IsbL-0400_RLatLon0.03_PT021H.grib2 2026-05-07 06:12 948K
20260507T00Z_MSC_CAPS_WindV_IsbL-0450_RLatLon0.03_PT021H.grib2 2026-05-07 06:12 966K
20260507T00Z_MSC_CAPS_WindV_IsbL-0500_RLatLon0.03_PT021H.grib2 2026-05-07 06:12 1.0M
20260507T00Z_MSC_CAPS_WindV_IsbL-0550_RLatLon0.03_PT021H.grib2 2026-05-07 06:12 901K
20260507T00Z_MSC_CAPS_WindV_IsbL-0600_RLatLon0.03_PT021H.grib2 2026-05-07 06:12 923K
20260507T00Z_MSC_CAPS_WindV_IsbL-0650_RLatLon0.03_PT021H.grib2 2026-05-07 06:12 954K
20260507T00Z_MSC_CAPS_WindV_IsbL-0700_RLatLon0.03_PT021H.grib2 2026-05-07 06:12 1.0M
20260507T00Z_MSC_CAPS_WindV_IsbL-0750_RLatLon0.03_PT021H.grib2 2026-05-07 06:12 1.1M
20260507T00Z_MSC_CAPS_WindV_IsbL-0800_RLatLon0.03_PT021H.grib2 2026-05-07 06:12 1.1M
20260507T00Z_MSC_CAPS_WindV_IsbL-0850_RLatLon0.03_PT021H.grib2 2026-05-07 06:12 1.2M
20260507T00Z_MSC_CAPS_WindV_IsbL-0875_RLatLon0.03_PT021H.grib2 2026-05-07 06:12 1.2M
20260507T00Z_MSC_CAPS_WindV_IsbL-0900_RLatLon0.03_PT021H.grib2 2026-05-07 06:12 1.3M
20260507T00Z_MSC_CAPS_WindV_IsbL-0925_RLatLon0.03_PT021H.grib2 2026-05-07 06:12 1.3M
20260507T00Z_MSC_CAPS_WindV_IsbL-0950_RLatLon0.03_PT021H.grib2 2026-05-07 06:12 1.7M
20260507T00Z_MSC_CAPS_WindV_IsbL-0970_RLatLon0.03_PT021H.grib2 2026-05-07 06:12 1.7M
20260507T00Z_MSC_CAPS_WindV_IsbL-0985_RLatLon0.03_PT021H.grib2 2026-05-07 06:12 1.9M
20260507T00Z_MSC_CAPS_WindV_IsbL-1000_RLatLon0.03_PT021H.grib2 2026-05-07 06:12 1.9M
20260507T00Z_MSC_CAPS_WindV_IsbL-1015_RLatLon0.03_PT021H.grib2 2026-05-07 06:12 1.9M